SCP
0 -0 -0 -0 -0 -0 -0 -0 -0 -0 -0 -0 -0 -0 0 0 0 0 -0 -0 -0 -0 -0 -0 -0 -0 -0 -0 -0 -0 -0 -0 -0 -0 -0 -0 -0 -0 -0 0 0 0 0
-0 -0 -0 -0 -0 -0 -0 -0 -0 -0 -0 -0 0 -0 0 0 0 -0 -0 -0 -0 -0 -0 -0 -0 -0 -0 -0 -0 -0 -0 -0 -0 -0 -0 -0 -0 -0 -0 0 0 0 0
0 0 -0 -0 -0 -0 -0 0 -0 -0 -0 -0 -0 -0 0 0 0 0 -0 -0 -0 -0 -0 -0 -0 -0 -0 -0 -0 -0 -0 -0 -0 -0 -0 0 0 0 0 0 0 0 0
0 0 0 0 -0 -0 -0 0 0 -0 -0 -0 -0 -0 -0 0 -0 -0 -0 -0 -0 -0 -0 -0 -0 -0 -0 -0 -0 -0 -0 -0 0 -0 0 0 0 0 0 0 0 0 -0
0 0 0 0 0 0 -0 0 0 -0 -0 -0 -0 -0 -0 0 -0 -0 -0 -0 -0 -0 -0 -0 -0 -0 -0 -0 -0 -0 -0 0 -0 0 0 0 0 0 0 0 0 0 0
0 0 0 0 0 0 0 0 0 -0 -0 -0 -0 -0 -0 0 0 0 -0 -0 -0 -0 -0 -0 -0 -0 -0 -0 -0 0 0 0 -0 0 0 0 0 0 0 0 0 0 0
0 0 0 0 0 0 0 0 0 0 0 -0 -0 -0 -0 0 0 0 0 -0 -0 -0 -0 -0 0 -0 -0 0 0 0 0 0 0 0 0 0 0 0 0 0 0 0 0
0 0 0 0 0 0 0 0 0 0 0 0 0 -0 -0 -0 0 0 0 -0 -0 -0 0 0 0 0 0 0 0 0 0 -0 0 0 0 0 0 -0 0 0 0 0 0
0 0 0 0 0 0 0 0 0 0 0 0 0 0 0 -0 -0 -0 -0 -0 -0 -0 0 0 0 0 0 0 0 0 0 0 0 0 0 0 0 -0 0 0 0 0 0
0 0 0 0 0 0 0 0 0 0 0 0 0 0 0 0 0 -0 -0 -0 -0 -0 0 0 0 0 0 0 0 0 0 0 0 0 0 0 0 -0 -0 0 0 0 0
0 0 0 0 0 0 0 0 0 0 0 0 0 0 0 0 0 0 0 0 0 0 0 0 0 0 0 0 0 0 -0 0 0 0 0 0 0 0 0 0 0 0 0
0 0 0 0 0 0 0 0 0 0 0 0 0 0 0 0 0 0 0 0 0 0 0 0 0 0 0 0 0 0 0 0 0 0 0 0 0 0 0 0 0 0 0
0 0 0 0 0 0 0 0 0 0 0 0 0 0 0 0 0 0 0 0 0 0 0 0 0 0 0 0 0 0 0 0 0 0 0 0 0 0 0 0 0 0 0
0 0 0 0 0 0 0 0 0 0 0 0 0 0 0 0 0 0 0 0 0 0 0 0 0 0 0 0 0 0 0 0 0 0 0 0 0 0 0 0 0 0 0
0 0 0 0 0 0 0 0 0 0 0 0 0 0 0 0 0 0 0 0 0 0 0 0 0 0 0 0 0 0 0 0 0 0 0 0 0 0 0 0 0 0 0
0 0 0 0 0 0 0 0 0 0 0 0 0 0 0 0 0 0 0 0 0 0 0 0 0 0 0 0 0 0 0 0 0 0 0 0 0 0 0 0 0 0 0
0 0 0 0 0 0 0 0 0 0 0 0 0 0 0 0 0 0 0 0 0 0 0 0 0 0 0 0 0 0 0 0 0 0 0 0 0 0 0 0 0 0 0
0 0 0 0 0 0 0 0 0 0 0 0 0 0 0 0 0 0 0 0 0 0 0 0 0 0 0 0 0 0 0 0 0 0 0 0 0 0 0 0 0 0 0
0 0 0 0 0 0 0 0 0 0 0 0 0 0 0 0 0 0 0 0 0 0 0 0 0 0 0 0 0 0 0 0 0 0 0 0 0 0 0 0 0 0 0
0 0 0 0 0 0 0 0 0 0 0 0 0 0 0 0 0 0 0 0 0 0 0 0 0 0 0 0 0 0 0 0 0 0 0 0 0 0 0 0 0 0 0
0 0 0 0 0 0 0 0 0 0 0 0 0 0 0 0 0 0 0 0 0 0 0 0 0 0 0 0 0 0 0 0 0 0 0 0 0 0 0 0 0 0 0
0 0 0 0 0 0 0 0 0 0 0 0 0 0 0 0 0 0 0 0 0 0 0 0 0 0 0 0 0 0 0 0 0 0 0 0 0 0 0 0 0 0 0
0 0 0 0 0 0 0 0 0 0 0 0 0 0 0 0 0 0 0 0 0 0 0 0 0 0 0 0 0 0 0 0 0 0 0 0 0 0 0 0 0 0 0
0 0 0 0 0 0 0 0 0 0 0 0 0 0 0 0 0 0 0 0 0 0 0 0 0 0 0 0 0 0 0 0 0 0 0 0 0 0 0 0 0 0 0
0 0 0 0 0 0 0 0 0 0 0 0 0 0 0 0 0 0 0 0 0 0 0 0 0 0 0 0 0 0 0 0 0 0 0 0 0 0 0 0 0 0 0
0 0 0 0 0 0 0 0 0 0 0 0 0 0 0 0 0 0 0 0 0 0 0 0 0 0 0 0 0 0 0 0 0 0 0 0 0 0 0 0 0 0 0
Wind_Speed_500mb
47 50 45 38 31 27 28 31 30 27 27 31 37 41 39 39 38 36 34 37 43 39 29 19 22 22 23 23 24 26 28 28 28 34 36 27 35 34 28 33 28 26 26
57 53 45 38 31 28 28 30 30 31 34 38 41 41 37 36 32 35 34 32 31 27 18 15 17 18 21 23 27 29 30 30 29 33 36 29 27 26 28 25 24 23 25
58 54 45 38 33 31 31 36 37 38 39 41 43 43 35 33 33 31 29 25 17 13 12 6 15 19 25 28 27 29 29 30 30 30 36 20 22 23 23 20 22 22 22
60 54 47 38 35 35 39 40 41 41 39 41 40 37 33 33 30 28 30 26 20 16 11 15 20 22 25 28 28 28 29 28 27 26 22 21 17 22 22 19 18 18 19
60 54 48 40 38 40 42 43 39 39 38 36 36 35 33 28 25 24 20 17 12 11 12 18 20 21 21 23 23 23 23 23 22 24 21 20 16 19 20 18 17 15 14
61 52 46 41 40 44 44 44 41 37 36 37 39 31 25 19 17 16 19 21 18 12 18 17 19 19 19 19 20 20 19 19 20 19 18 18 14 16 16 15 15 14 14
59 51 47 42 43 45 45 45 42 38 34 32 28 21 14 11 10 13 18 23 22 18 21 17 18 17 17 17 17 16 16 15 15 15 14 13 10 13 13 13 13 13 12
53 51 47 44 45 47 45 43 41 37 31 27 22 16 12 11 12 14 21 23 26 23 21 18 17 16 15 13 12 12 11 12 12 10 10 9 9 9 11 12 11 11 11
50 51 48 47 47 47 44 41 38 36 30 27 22 16 13 13 15 20 20 17 21 24 22 18 15 12 10 8 7 6 6 7 7 7 6 5 5 6 8 10 11 12 13
54 51 46 49 51 50 44 40 37 33 28 23 18 14 15 15 14 15 19 21 20 20 19 16 12 8 5 3 2 3 4 4 3 5 7 6 7 7 9 10 12 13 14
57 56 50 48 47 46 46 41 36 33 25 20 16 16 18 19 18 15 19 22 21 19 17 13 9 6 4 2 2 4 5 4 5 6 8 9 10 11 12 13 15 15 15
62 57 54 50 47 46 42 43 39 37 28 20 17 20 21 20 19 19 17 21 20 17 13 10 7 7 6 5 6 6 7 7 8 9 12 12 11 12 13 15 15 15 15
64 61 57 54 52 47 48 46 43 38 31 22 21 19 23 23 22 19 14 14 15 15 9 4 4 5 8 8 8 8 9 10 12 12 13 12 13 13 14 15 16 16 15
70 61 57 55 55 50 49 50 45 39 31 24 22 20 22 20 18 16 15 14 13 11 8 7 8 7 7 9 9 10 12 12 12 12 13 15 15 15 14 14 15 13 9
69 64 60 56 55 51 50 51 45 37 30 25 22 21 21 19 16 12 12 14 13 11 9 8 9 11 11 12 13 13 13 13 14 15 15 17 17 15 15 17 16 10 8
63 58 54 52 53 50 47 47 46 40 34 28 24 19 17 15 12 8 7 9 10 10 9 10 9 9 11 11 13 14 15 16 16 16 16 14 13 16 18 17 14 9 9
58 54 54 52 51 51 48 45 44 41 36 31 27 22 18 15 12 10 9 8 9 9 8 9 10 10 11 14 14 16 18 17 13 12 14 13 15 18 17 14 12 9 8
56 55 47 48 52 52 49 48 45 42 38 34 30 25 20 16 14 14 13 13 15 14 13 13 13 12 13 15 11 12 15 17 18 19 17 16 14 12 11 9 7 4 4
46 44 43 45 49 52 51 45 45 42 40 36 31 27 21 18 13 11 11 13 16 16 15 15 13 14 14 11 14 19 21 20 24 23 20 16 10 7 11 6 5 4 4
38 36 37 37 37 47 52 48 43 41 38 35 30 27 24 24 21 17 16 15 15 14 16 17 15 15 15 16 19 23 23 24 26 18 14 12 10 9 11 11 6 7 9
40 39 38 39 39 43 47 53 48 47 42 35 35 28 28 27 24 21 20 19 18 16 17 18 19 19 20 21 25 23 19 18 9 2 7 10 10 10 11 14 16 18 19
46 45 42 41 40 38 41 48 48 43 39 33 29 33 31 27 24 25 24 23 22 22 22 22 23 24 25 24 27 28 10 10 6 8 9 15 16 15 14 19 24 25 24
21 29 41 48 51 43 39 42 42 40 40 39 35 33 29 28 27 26 27 25 27 27 27 26 27 28 30 30 30 26 13 9 4 17 26 25 23 25 22 26 26 25 25
19 25 30 35 44 51 51 53 51 43 40 40 38 34 30 27 28 30 31 32 32 33 32 31 32 34 34 35 35 37 41 40 29 19 32 38 35 33 34 31 29 28 29
42 48 48 42 42 43 41 48 55 52 47 32 43 40 39 38 37 38 33 34 35 35 34 35 36 38 39 40 43 45 45 48 53 57 39 43 44 44 40 31 25 32 33
26 25 26 26 29 34 51 49 42 39 46 48 48 45 43 49 53 45 37 39 39 40 43 42 42 42 44 48 48 51 54 57 51 64 63 31 54 45 33 24 29 37 34
Wind_Direction_500mb
168 174 175 171 170 168 165 163 159 153 146 140 133 127 117 107 121 124 124 119 123 127 122 107 91 73 79 83 87 93 92 94 91 94 86 70 84 75 73 82 75 72 81
161 171 174 174 172 166 165 161 157 150 145 140 139 134 119 114 112 131 128 134 124 123 124 125 92 66 76 89 91 92 93 92 88 91 92 90 80 73 93 80 80 75 82
160 170 172 174 169 164 160 153 149 146 143 141 138 138 129 120 118 131 142 145 153 158 148 136 95 84 80 98 95 95 92 91 89 90 87 83 77 72 86 80 93 90 76
161 169 173 171 167 159 152 146 146 145 144 145 143 143 135 128 122 121 131 132 132 134 153 123 111 100 95 96 95 96 90 87 88 89 85 86 73 78 75 76 77 77 75
163 169 173 168 165 156 150 150 149 150 149 149 148 141 140 134 131 139 151 147 155 144 127 121 114 110 106 101 98 98 90 86 86 83 81 85 76 72 71 67 64 63 58
163 170 167 167 163 157 153 153 147 146 153 147 144 149 146 146 150 165 176 175 175 169 144 130 122 119 112 103 99 95 89 84 81 82 82 78 81 72 67 64 59 52 47
164 167 164 166 165 160 157 158 157 153 150 153 159 164 166 168 173 166 171 179 178 176 144 141 132 128 116 104 96 88 84 79 79 77 76 74 67 64 55 48 45 40 35
159 162 165 165 167 163 162 163 164 163 163 168 174 181 186 184 173 162 151 152 155 156 147 142 141 137 126 113 101 89 82 75 69 66 69 64 52 48 42 33 26 20 11
161 164 164 165 168 167 166 168 163 161 165 170 173 178 184 180 164 155 152 146 136 148 146 149 149 145 133 116 101 83 67 60 56 41 42 34 21 20 21 14 7 2 356
167 168 165 168 169 171 170 171 168 164 161 161 164 172 177 168 161 136 149 146 141 145 151 157 158 157 150 133 88 43 27 14 15 3 1 341 344 345 342 339 345 348 346
174 174 171 168 170 171 174 175 173 171 167 168 171 173 167 167 168 153 152 152 158 161 166 172 181 192 206 240 295 332 350 347 335 332 337 332 328 329 325 324 329 331 328
177 178 178 173 172 175 174 175 180 180 179 182 180 172 172 172 172 168 173 174 170 175 179 186 203 227 246 272 292 299 314 309 313 314 313 316 316 313 311 315 320 321 324
181 182 181 181 179 178 181 176 182 186 186 184 178 181 177 170 167 167 171 181 168 171 173 193 245 261 250 258 274 282 295 301 303 300 296 299 305 310 312 311 315 319 321
185 188 185 185 183 186 185 183 186 190 189 185 175 166 167 166 167 176 177 174 172 178 209 237 256 256 254 258 268 278 288 295 301 303 302 297 300 302 308 318 320 321 353
190 186 188 187 186 190 190 190 189 192 192 187 178 166 164 164 163 164 184 194 200 209 223 251 276 268 266 266 273 282 290 298 303 302 300 299 302 311 307 310 312 316 331
193 190 192 190 189 191 193 194 194 195 193 192 190 186 181 181 182 180 172 189 205 219 246 267 282 277 278 286 290 292 298 304 307 302 302 306 311 308 302 297 304 311 298
195 194 193 196 194 194 195 194 197 199 198 198 199 200 202 204 210 219 227 225 234 243 262 282 284 294 296 295 297 299 298 305 305 301 297 298 309 313 307 295 299 313 319
196 198 200 199 197 196 199 198 199 204 205 207 207 211 214 220 229 234 245 250 250 255 265 284 286 294 291 293 304 306 313 307 298 293 292 293 299 302 296 289 294 320 353
194 194 201 203 203 201 202 202 203 208 210 213 217 220 217 220 224 236 245 251 253 257 265 275 281 280 292 300 300 312 321 304 304 299 287 278 272 256 270 275 285 298 326
196 198 204 208 207 208 207 205 206 210 212 213 218 218 217 223 227 231 236 247 252 264 278 285 290 298 313 308 309 313 318 308 312 294 268 241 228 243 253 265 278 284 286
205 209 213 215 214 215 213 209 211 213 214 214 221 225 226 231 234 235 242 243 257 270 279 279 282 290 297 300 306 312 315 314 322 264 175 200 229 247 264 263 273 278 286
201 208 213 219 221 219 217 212 215 218 216 223 230 228 231 233 237 243 248 253 259 266 265 271 278 283 289 293 292 305 311 313 274 229 235 245 251 258 265 274 271 272 282
199 213 217 214 215 218 218 213 216 217 216 220 223 227 231 235 245 251 256 260 263 267 271 273 278 280 285 285 283 274 285 241 224 255 259 262 262 255 263 277 263 265 280
216 215 231 239 234 218 214 216 216 216 217 219 222 226 234 240 247 254 254 259 265 267 268 272 276 279 278 280 278 278 274 265 256 245 249 253 258 252 261 266 259 272 281
214 213 216 221 230 227 236 226 222 225 223 222 229 232 233 238 245 246 251 255 259 263 268 272 271 275 276 277 275 275 273 270 264 252 244 238 237 238 248 250 269 269 267
165 181 201 208 220 213 218 220 228 222 242 235 239 242 246 246 240 242 245 246 253 257 258 266 267 269 271 273 274 277 275 268 267 253 244 265 242 228 226 262 264 268 261
Wind_Speed_850mb
47 50 45 38 31 27 28 31 30 27 27 31 37 41 39 39 38 36 34 37 43 39 29 19 22 22 23 23 24 26 28 28 28 34 36 27 35 34 28 33 28 26 26
57 53 45 38 31 28 28 30 30 31 34 38 41 41 37 36 32 35 34 32 31 27 18 15 17 18 21 23 27 29 30 30 29 33 36 29 27 26 28 25 24 23 25
58 54 45 38 33 31 31 36 37 38 39 41 43 43 35 33 33 31 29 25 17 13 12 6 15 19 25 28 27 29 29 30 30 30 36 20 22 23 23 20 22 22 22
60 54 47 38 35 35 39 40 41 41 39 41 40 37 33 33 30 28 30 26 20 16 11 15 20 22 25 28 28 28 29 28 27 26 22 21 17 22 22 19 18 18 19
60 54 48 40 38 40 42 43 39 39 38 36 36 35 33 28 25 24 20 17 12 11 12 18 20 21 21 23 23 23 23 23 22 24 21 20 16 19 20 18 17 15 14
61 52 46 41 40 44 44 44 41 37 36 37 39 31 25 19 17 16 19 21 18 12 18 17 19 19 19 19 20 20 19 19 20 19 18 18 14 16 16 15 15 14 14
59 51 47 42 43 45 45 45 42 38 34 32 28 21 14 11 10 13 18 23 22 18 21 17 18 17 17 17 17 16 16 15 15 15 14 13 10 13 13 13 13 13 12
53 51 47 44 45 47 45 43 41 37 31 27 22 16 12 11 12 14 21 23 26 23 21 18 17 16 15 13 12 12 11 12 12 10 10 9 9 9 11 12 11 11 11
50 51 48 47 47 47 44 41 38 36 30 27 22 16 13 13 15 20 20 17 21 24 22 18 15 12 10 8 7 6 6 7 7 7 6 5 5 6 8 10 11 12 13
54 51 46 49 51 50 44 40 37 33 28 23 18 14 15 15 14 15 19 21 20 20 19 16 12 8 5 3 2 3 4 4 3 5 7 6 7 7 9 10 12 13 14
57 56 50 48 47 46 46 41 36 33 25 20 16 16 18 19 18 15 19 22 21 19 17 13 9 6 4 2 2 4 5 4 5 6 8 9 10 11 12 13 15 15 15
62 57 54 50 47 46 42 43 39 37 28 20 17 20 21 20 19 19 17 21 20 17 13 10 7 7 6 5 6 6 7 7 8 9 12 12 11 12 13 15 15 15 15
64 61 57 54 52 47 48 46 43 38 31 22 21 19 23 23 22 19 14 14 15 15 9 4 4 5 8 8 8 8 9 10 12 12 13 12 13 13 14 15 16 16 15
70 61 57 55 55 50 49 50 45 39 31 24 22 20 22 20 18 16 15 14 13 11 8 7 8 7 7 9 9 10 12 12 12 12 13 15 15 15 14 14 15 13 9
69 64 60 56 55 51 50 51 45 37 30 25 22 21 21 19 16 12 12 14 13 11 9 8 9 11 11 12 13 13 13 13 14 15 15 17 17 15 15 17 16 10 8
63 58 54 52 53 50 47 47 46 40 34 28 24 19 17 15 12 8 7 9 10 10 9 10 9 9 11 11 13 14 15 16 16 16 16 14 13 16 18 17 14 9 9
58 54 54 52 51 51 48 45 44 41 36 31 27 22 18 15 12 10 9 8 9 9 8 9 10 10 11 14 14 16 18 17 13 12 14 13 15 18 17 14 12 9 8
56 55 47 48 52 52 49 48 45 42 38 34 30 25 20 16 14 14 13 13 15 14 13 13 13 12 13 15 11 12 15 17 18 19 17 16 14 12 11 9 7 4 4
46 44 43 45 49 52 51 45 45 42 40 36 31 27 21 18 13 11 11 13 16 16 15 15 13 14 14 11 14 19 21 20 24 23 20 16 10 7 11 6 5 4 4
38 36 37 37 37 47 52 48 43 41 38 35 30 27 24 24 21 17 16 15 15 14 16 17 15 15 15 16 19 23 23 24 26 18 14 12 10 9 11 11 6 7 9
40 39 38 39 39 43 47 53 48 47 42 35 35 28 28 27 24 21 20 19 18 16 17 18 19 19 20 21 25 23 19 18 9 2 7 10 10 10 11 14 16 18 19
46 45 42 41 40 38 41 48 48 43 39 33 29 33 31 27 24 25 24 23 22 22 22 22 23 24 25 24 27 28 10 10 6 8 9 15 16 15 14 19 24 25 24
21 29 41 48 51 43 39 42 42 40 40 39 35 33 29 28 27 26 27 25 27 27 27 26 27 28 30 30 30 26 13 9 4 17 26 25 23 25 22 26 26 25 25
19 25 30 35 44 51 51 53 51 43 40 40 38 34 30 27 28 30 31 32 32 33 32 31 32 34 34 35 35 37 41 40 29 19 32 38 35 33 34 31 29 28 29
42 48 48 42 42 43 41 48 55 52 47 32 43 40 39 38 37 38 33 34 35 35 34 35 36 38 39 40 43 45 45 48 53 57 39 43 44 44 40 31 25 32 33
26 25 26 26 29 34 51 49 42 39 46 48 48 45 43 49 53 45 37 39 39 40 43 42 42 42 44 48 48 51 54 57 51 64 63 31 54 45 33 24 29 37 34
Wind_Direction_850mb
168 174 175 171 170 168 165 163 159 153 146 140 133 127 117 107 121 124 124 119 123 127 122 107 91 73 79 83 87 93 92 94 91 94 86 70 84 75 73 82 75 72 81
161 171 174 174 172 166 165 161 157 150 145 140 139 134 119 114 112 131 128 134 124 123 124 125 92 66 76 89 91 92 93 92 88 91 92 90 80 73 93 80 80 75 82
160 170 172 174 169 164 160 153 149 146 143 141 138 138 129 120 118 131 142 145 153 158 148 136 95 84 80 98 95 95 92 91 89 90 87 83 77 72 86 80 93 90 76
161 169 173 171 167 159 152 146 146 145 144 145 143 143 135 128 122 121 131 132 132 134 153 123 111 100 95 96 95 96 90 87 88 89 85 86 73 78 75 76 77 77 75
163 169 173 168 165 156 150 150 149 150 149 149 148 141 140 134 131 139 151 147 155 144 127 121 114 110 106 101 98 98 90 86 86 83 81 85 76 72 71 67 64 63 58
163 170 167 167 163 157 153 153 147 146 153 147 144 149 146 146 150 165 176 175 175 169 144 130 122 119 112 103 99 95 89 84 81 82 82 78 81 72 67 64 59 52 47
164 167 164 166 165 160 157 158 157 153 150 153 159 164 166 168 173 166 171 179 178 176 144 141 132 128 116 104 96 88 84 79 79 77 76 74 67 64 55 48 45 40 35
159 162 165 165 167 163 162 163 164 163 163 168 174 181 186 184 173 162 151 152 155 156 147 142 141 137 126 113 101 89 82 75 69 66 69 64 52 48 42 33 26 20 11
161 164 164 165 168 167 166 168 163 161 165 170 173 178 184 180 164 155 152 146 136 148 146 149 149 145 133 116 101 83 67 60 56 41 42 34 21 20 21 14 7 2 356
167 168 165 168 169 171 170 171 168 164 161 161 164 172 177 168 161 136 149 146 141 145 151 157 158 157 150 133 88 43 27 14 15 3 1 341 344 345 342 339 345 348 346
174 174 171 168 170 171 174 175 173 171 167 168 171 173 167 167 168 153 152 152 158 161 166 172 181 192 206 240 295 332 350 347 335 332 337 332 328 329 325 324 329 331 328
177 178 178 173 172 175 174 175 180 180 179 182 180 172 172 172 172 168 173 174 170 175 179 186 203 227 246 272 292 299 314 309 313 314 313 316 316 313 311 315 320 321 324
181 182 181 181 179 178 181 176 182 186 186 184 178 181 177 170 167 167 171 181 168 171 173 193 245 261 250 258 274 282 295 301 303 300 296 299 305 310 312 311 315 319 321
185 188 185 185 183 186 185 183 186 190 189 185 175 166 167 166 167 176 177 174 172 178 209 237 256 256 254 258 268 278 288 295 301 303 302 297 300 302 308 318 320 321 353
190 186 188 187 186 190 190 190 189 192 192 187 178 166 164 164 163 164 184 194 200 209 223 251 276 268 266 266 273 282 290 298 303 302 300 299 302 311 307 310 312 316 331
193 190 192 190 189 191 193 194 194 195 193 192 190 186 181 181 182 180 172 189 205 219 246 267 282 277 278 286 290 292 298 304 307 302 302 306 311 308 302 297 304 311 298
195 194 193 196 194 194 195 194 197 199 198 198 199 200 202 204 210 219 227 225 234 243 262 282 284 294 296 295 297 299 298 305 305 301 297 298 309 313 307 295 299 313 319
196 198 200 199 197 196 199 198 199 204 205 207 207 211 214 220 229 234 245 250 250 255 265 284 286 294 291 293 304 306 313 307 298 293 292 293 299 302 296 289 294 320 353
194 194 201 203 203 201 202 202 203 208 210 213 217 220 217 220 224 236 245 251 253 257 265 275 281 280 292 300 300 312 321 304 304 299 287 278 272 256 270 275 285 298 326
196 198 204 208 207 208 207 205 206 210 212 213 218 218 217 223 227 231 236 247 252 264 278 285 290 298 313 308 309 313 318 308 312 294 268 241 228 243 253 265 278 284 286
205 209 213 215 214 215 213 209 211 213 214 214 221 225 226 231 234 235 242 243 257 270 279 279 282 290 297 300 306 312 315 314 322 264 175 200 229 247 264 263 273 278 286
201 208 213 219 221 219 217 212 215 218 216 223 230 228 231 233 237 243 248 253 259 266 265 271 278 283 289 293 292 305 311 313 274 229 235 245 251 258 265 274 271 272 282
199 213 217 214 215 218 218 213 216 217 216 220 223 227 231 235 245 251 256 260 263 267 271 273 278 280 285 285 283 274 285 241 224 255 259 262 262 255 263 277 263 265 280
216 215 231 239 234 218 214 216 216 216 217 219 222 226 234 240 247 254 254 259 265 267 268 272 276 279 278 280 278 278 274 265 256 245 249 253 258 252 261 266 259 272 281
214 213 216 221 230 227 236 226 222 225 223 222 229 232 233 238 245 246 251 255 259 263 268 272 271 275 276 277 275 275 273 270 264 252 244 238 237 238 248 250 269 269 267
165 181 201 208 220 213 218 220 228 222 242 235 239 242 246 246 240 242 245 246 253 257 258 266 267 269 271 273 274 277 275 268 267 253 244 265 242 228 226 262 264 268 261